Year,Month,Day,Hour,Minute,Value (Times are PST for temperature in C)
2011,08,16,00,00,12.40
2011,08,16,00,01,12.40
2011,08,16,00,02,12.30
2011,08,16,00,03,12.30
2011,08,16,00,04,12.30
2011,08,16,00,05,12.30
2011,08,16,00,06,12.30
2011,08,16,00,07,12.30
2011,08,16,00,08,12.20
2011,08,16,00,09,12.20
2011,08,16,00,10,12.20
2011,08,16,00,11,12.20
2011,08,16,00,12,12.10
2011,08,16,00,13,12.10
2011,08,16,00,14,12.10
2011,08,16,00,15,12.00
2011,08,16,00,16,12.00
2011,08,16,00,17,12.00
2011,08,16,00,18,11.90
2011,08,16,00,19,11.90
2011,08,16,00,20,11.90
2011,08,16,00,21,11.90
2011,08,16,00,22,11.90
2011,08,16,00,23,11.80
2011,08,16,00,24,11.80
2011,08,16,00,25,11.80
2011,08,16,00,26,11.80
2011,08,16,00,27,11.80
2011,08,16,00,28,11.70
2011,08,16,00,29,11.70
2011,08,16,00,30,11.70
2011,08,16,00,31,11.70
2011,08,16,00,32,11.60
2011,08,16,00,33,11.60
2011,08,16,00,34,11.60
2011,08,16,00,35,11.60
2011,08,16,00,36,11.60
2011,08,16,00,37,11.60
2011,08,16,00,38,11.50
2011,08,16,00,39,11.50
2011,08,16,00,40,11.50
2011,08,16,00,41,11.50
2011,08,16,00,42,11.50
2011,08,16,00,43,11.40
2011,08,16,00,44,11.40
2011,08,16,00,45,11.40
2011,08,16,00,46,11.40
2011,08,16,00,47,11.40
2011,08,16,00,48,11.40
2011,08,16,00,49,11.30
2011,08,16,00,50,11.30
2011,08,16,00,51,11.30
2011,08,16,00,52,11.30
2011,08,16,00,53,11.30
2011,08,16,00,54,11.20
2011,08,16,00,55,11.20
2011,08,16,00,56,11.20
2011,08,16,00,57,11.10
2011,08,16,00,58,11.10
2011,08,16,00,59,11.10
2011,08,16,01,00,11.10
2011,08,16,01,01,11.10
2011,08,16,01,02,11.00
2011,08,16,01,03,11.00
2011,08,16,01,04,11.00
2011,08,16,01,05,11.00
2011,08,16,01,06,11.00
2011,08,16,01,07,11.00
2011,08,16,01,08,11.00
2011,08,16,01,09,10.90
2011,08,16,01,10,10.90
2011,08,16,01,11,10.90
2011,08,16,01,12,10.90
2011,08,16,01,13,10.90
2011,08,16,01,14,10.90
2011,08,16,01,15,10.90
2011,08,16,01,16,10.90
2011,08,16,01,17,10.90
2011,08,16,01,18,10.90
2011,08,16,01,19,10.90
2011,08,16,01,20,10.80
2011,08,16,01,21,10.80
2011,08,16,01,22,10.80
2011,08,16,01,23,10.80
2011,08,16,01,24,10.80
2011,08,16,01,25,10.80
2011,08,16,01,26,10.80
2011,08,16,01,27,10.80
2011,08,16,01,28,10.80
2011,08,16,01,29,10.80
2011,08,16,01,30,10.80
2011,08,16,01,31,10.80
2011,08,16,01,32,10.70
2011,08,16,01,33,10.70
2011,08,16,01,34,10.70
2011,08,16,01,35,10.70
2011,08,16,01,36,10.80
2011,08,16,01,37,10.80
2011,08,16,01,38,10.70
2011,08,16,01,39,10.70
2011,08,16,01,40,10.70
2011,08,16,01,41,10.70
2011,08,16,01,42,10.70
2011,08,16,01,43,10.70
2011,08,16,01,44,10.70
2011,08,16,01,45,10.70
2011,08,16,01,46,10.70
2011,08,16,01,47,10.70
2011,08,16,01,48,10.70
2011,08,16,01,49,10.70
2011,08,16,01,50,10.70
2011,08,16,01,51,10.60
2011,08,16,01,52,10.60
2011,08,16,01,53,10.60
2011,08,16,01,54,10.60
2011,08,16,01,55,10.60
2011,08,16,01,56,10.50
2011,08,16,01,57,10.50
2011,08,16,01,58,10.50
2011,08,16,01,59,10.50
2011,08,16,02,00,10.50
2011,08,16,02,01,10.50
2011,08,16,02,02,10.40
2011,08,16,02,03,10.40
2011,08,16,02,04,10.40
2011,08,16,02,05,10.40
2011,08,16,02,06,10.40
2011,08,16,02,07,10.40
2011,08,16,02,08,10.40
2011,08,16,02,09,10.40
2011,08,16,02,10,10.40
2011,08,16,02,11,10.40
2011,08,16,02,12,10.30
2011,08,16,02,13,10.30
2011,08,16,02,14,10.30
2011,08,16,02,15,10.30
2011,08,16,02,16,10.30
2011,08,16,02,17,10.30
2011,08,16,02,18,10.30
2011,08,16,02,19,10.30
2011,08,16,02,20,10.20
2011,08,16,02,21,10.20
2011,08,16,02,22,10.20
2011,08,16,02,23,10.20
2011,08,16,02,24,10.20
2011,08,16,02,25,10.20
2011,08,16,02,26,10.20
2011,08,16,02,27,10.20
2011,08,16,02,28,10.20
2011,08,16,02,29,10.10
2011,08,16,02,30,10.10
2011,08,16,02,31,10.10
2011,08,16,02,32,10.10
2011,08,16,02,33,10.10
2011,08,16,02,34,10.00
2011,08,16,02,35,10.00
2011,08,16,02,36,10.00
2011,08,16,02,37,10.00
2011,08,16,02,38,9.90
2011,08,16,02,39,9.90
2011,08,16,02,40,9.90
2011,08,16,02,41,9.90
2011,08,16,02,42,9.90
2011,08,16,02,43,9.90
2011,08,16,02,44,9.90
2011,08,16,02,45,9.90
2011,08,16,02,46,9.90
2011,08,16,02,47,9.90
2011,08,16,02,48,9.90
2011,08,16,02,49,9.90
2011,08,16,02,50,9.90
2011,08,16,02,51,9.90
2011,08,16,02,52,9.90
2011,08,16,02,53,9.90
2011,08,16,02,54,9.80
2011,08,16,02,55,9.80
2011,08,16,02,56,9.80
2011,08,16,02,57,9.80
2011,08,16,02,58,9.80
2011,08,16,02,59,9.80
2011,08,16,03,00,9.80
2011,08,16,03,01,9.80
2011,08,16,03,02,9.80
2011,08,16,03,03,9.80
2011,08,16,03,04,9.80
2011,08,16,03,05,9.80
2011,08,16,03,06,9.80
2011,08,16,03,07,9.80
2011,08,16,03,08,9.80
2011,08,16,03,09,9.70
2011,08,16,03,10,9.70
2011,08,16,03,11,9.70
2011,08,16,03,12,9.70
2011,08,16,03,13,9.70
2011,08,16,03,14,9.70
2011,08,16,03,15,9.70
2011,08,16,03,16,9.70
2011,08,16,03,17,9.70
2011,08,16,03,18,9.70
2011,08,16,03,19,9.70
2011,08,16,03,20,9.70
2011,08,16,03,21,9.70
2011,08,16,03,22,9.60
2011,08,16,03,23,9.60
2011,08,16,03,24,9.60
2011,08,16,03,25,9.60
2011,08,16,03,26,9.60
2011,08,16,03,27,9.60
2011,08,16,03,28,9.50
2011,08,16,03,29,9.50
2011,08,16,03,30,9.50
2011,08,16,03,31,9.50
2011,08,16,03,32,9.50
2011,08,16,03,33,9.40
2011,08,16,03,34,9.40
2011,08,16,03,35,9.40
2011,08,16,03,36,9.40
2011,08,16,03,37,9.40
2011,08,16,03,38,9.40
2011,08,16,03,39,9.40
2011,08,16,03,40,9.40
2011,08,16,03,41,9.40
2011,08,16,03,42,9.40
2011,08,16,03,43,9.40
2011,08,16,03,44,9.40
2011,08,16,03,45,9.40
2011,08,16,03,46,9.40
2011,08,16,03,47,9.40
2011,08,16,03,48,9.40
2011,08,16,03,49,9.40
2011,08,16,03,50,9.40
2011,08,16,03,51,9.40
2011,08,16,03,52,9.40
2011,08,16,03,53,9.40
2011,08,16,03,54,9.40
2011,08,16,03,55,9.40
2011,08,16,03,56,9.40
2011,08,16,03,57,9.30
2011,08,16,03,58,9.30
2011,08,16,03,59,9.30
2011,08,16,04,00,9.30
2011,08,16,04,01,9.30
2011,08,16,04,02,9.30
2011,08,16,04,03,9.30
2011,08,16,04,04,9.30
2011,08,16,04,05,9.30
2011,08,16,04,06,9.30
2011,08,16,04,07,9.30
2011,08,16,04,08,9.30
2011,08,16,04,09,9.30
2011,08,16,04,10,9.30
2011,08,16,04,11,9.30
2011,08,16,04,12,9.30
2011,08,16,04,13,9.30
2011,08,16,04,14,9.30
2011,08,16,04,15,9.30
2011,08,16,04,16,9.20
2011,08,16,04,17,9.20
2011,08,16,04,18,9.20
2011,08,16,04,19,9.20
2011,08,16,04,20,9.20
2011,08,16,04,21,9.20
2011,08,16,04,22,9.20
2011,08,16,04,23,9.20
2011,08,16,04,24,9.20
2011,08,16,04,25,9.20
2011,08,16,04,26,9.20
2011,08,16,04,27,9.20
2011,08,16,04,28,9.10
2011,08,16,04,29,9.10
2011,08,16,04,30,9.10
2011,08,16,04,31,9.10
2011,08,16,04,32,9.10
2011,08,16,04,33,9.10
2011,08,16,04,34,9.10
2011,08,16,04,35,9.10
2011,08,16,04,36,9.10
2011,08,16,04,37,9.10
2011,08,16,04,38,9.10
2011,08,16,04,39,9.10
2011,08,16,04,40,9.10
2011,08,16,04,41,9.10
2011,08,16,04,42,9.00
2011,08,16,04,43,9.10
2011,08,16,04,44,9.00
2011,08,16,04,45,9.00
2011,08,16,04,46,9.00
2011,08,16,04,47,9.00
2011,08,16,04,48,9.00
2011,08,16,04,49,9.00
2011,08,16,04,50,9.00
2011,08,16,04,51,9.00
2011,08,16,04,52,9.00
2011,08,16,04,53,8.90
2011,08,16,04,54,8.90
2011,08,16,04,55,8.90
2011,08,16,04,56,8.90
2011,08,16,04,57,8.90
2011,08,16,04,58,8.90
2011,08,16,04,59,8.90
2011,08,16,05,00,8.80
2011,08,16,05,01,8.80
2011,08,16,05,02,8.80
2011,08,16,05,03,8.80
2011,08,16,05,04,8.80
2011,08,16,05,05,8.80
2011,08,16,05,06,8.80
2011,08,16,05,07,8.80
2011,08,16,05,08,8.80
2011,08,16,05,09,8.80
2011,08,16,05,10,8.80
2011,08,16,05,11,8.80
2011,08,16,05,12,8.80
2011,08,16,05,13,8.80
2011,08,16,05,14,8.80
2011,08,16,05,15,8.70
2011,08,16,05,16,8.70
2011,08,16,05,17,8.70
2011,08,16,05,18,8.70
2011,08,16,05,19,8.80
2011,08,16,05,20,8.70
2011,08,16,05,21,8.70
2011,08,16,05,22,8.70
2011,08,16,05,23,8.70
2011,08,16,05,24,8.70
2011,08,16,05,25,8.70
2011,08,16,05,26,8.70
2011,08,16,05,27,8.70
2011,08,16,05,28,8.70
2011,08,16,05,29,8.70
2011,08,16,05,30,8.70
2011,08,16,05,31,8.70
2011,08,16,05,32,8.70
2011,08,16,05,33,8.70
2011,08,16,05,34,8.70
2011,08,16,05,35,8.70
2011,08,16,05,36,8.70
2011,08,16,05,37,8.70
2011,08,16,05,38,8.70
2011,08,16,05,39,8.80
2011,08,16,05,40,8.70
2011,08,16,05,41,8.70
2011,08,16,05,42,8.80
2011,08,16,05,43,8.70
2011,08,16,05,44,8.80
2011,08,16,05,45,8.80
2011,08,16,05,46,8.80
2011,08,16,05,47,8.80
2011,08,16,05,48,8.80
2011,08,16,05,49,8.80
2011,08,16,05,50,8.80
2011,08,16,05,51,8.80
2011,08,16,05,52,8.80
2011,08,16,05,53,8.80
2011,08,16,05,54,8.80
2011,08,16,05,55,8.80
2011,08,16,05,56,8.80
2011,08,16,05,57,8.80
2011,08,16,05,58,8.80
2011,08,16,05,59,8.80
2011,08,16,06,00,8.80
2011,08,16,06,01,8.80
2011,08,16,06,02,8.80
2011,08,16,06,03,8.70
2011,08,16,06,04,8.80
2011,08,16,06,05,8.70
2011,08,16,06,06,8.70
2011,08,16,06,07,8.70
2011,08,16,06,08,8.80
2011,08,16,06,09,8.80
2011,08,16,06,10,8.80
2011,08,16,06,11,8.80
2011,08,16,06,12,8.80
2011,08,16,06,13,8.80
2011,08,16,06,14,8.80
2011,08,16,06,15,8.80
2011,08,16,06,16,8.80
2011,08,16,06,17,8.80
2011,08,16,06,18,8.80
2011,08,16,06,19,8.80
2011,08,16,06,20,8.80
2011,08,16,06,21,8.80
2011,08,16,06,22,8.80
2011,08,16,06,23,8.80
2011,08,16,06,24,8.80
2011,08,16,06,25,8.80
2011,08,16,06,26,8.80
2011,08,16,06,27,8.80
2011,08,16,06,28,8.80
2011,08,16,06,29,8.80
2011,08,16,06,30,8.80
2011,08,16,06,31,8.80
2011,08,16,06,32,8.80
2011,08,16,06,33,8.80
2011,08,16,06,34,8.80
2011,08,16,06,35,8.80
2011,08,16,06,36,8.80
2011,08,16,06,37,8.80
2011,08,16,06,38,8.80
2011,08,16,06,39,8.80
2011,08,16,06,40,8.90
2011,08,16,06,41,8.90
2011,08,16,06,42,8.90
2011,08,16,06,43,8.90
2011,08,16,06,44,8.90
2011,08,16,06,45,8.90
2011,08,16,06,46,8.90
2011,08,16,06,47,8.90
2011,08,16,06,48,8.90
2011,08,16,06,49,8.90
2011,08,16,06,50,8.90
2011,08,16,06,51,8.90
2011,08,16,06,52,8.90
2011,08,16,06,53,8.90
2011,08,16,06,54,9.00
2011,08,16,06,55,9.00
2011,08,16,06,56,9.00
2011,08,16,06,57,9.00
2011,08,16,06,58,9.00
2011,08,16,06,59,9.00
2011,08,16,07,00,9.00
2011,08,16,07,01,9.00
2011,08,16,07,02,9.00
2011,08,16,07,03,9.00
2011,08,16,07,04,9.00
2011,08,16,07,05,9.00
2011,08,16,07,06,9.00
2011,08,16,07,07,9.00
2011,08,16,07,08,9.00
2011,08,16,07,09,9.00
2011,08,16,07,10,9.10
2011,08,16,07,11,9.10
2011,08,16,07,12,9.10
2011,08,16,07,13,9.10
2011,08,16,07,14,9.10
2011,08,16,07,15,9.10
2011,08,16,07,16,9.20
2011,08,16,07,17,9.20
2011,08,16,07,18,9.20
2011,08,16,07,19,9.20
2011,08,16,07,20,9.30
2011,08,16,07,21,9.30
2011,08,16,07,22,9.30
2011,08,16,07,23,9.30
2011,08,16,07,24,9.30
2011,08,16,07,25,9.30
2011,08,16,07,26,9.40
2011,08,16,07,27,9.40
2011,08,16,07,28,9.50
2011,08,16,07,29,9.50
2011,08,16,07,30,9.60
2011,08,16,07,31,9.70
2011,08,16,07,32,9.70
2011,08,16,07,33,9.70
2011,08,16,07,34,9.80
2011,08,16,07,35,9.80
2011,08,16,07,36,9.90
2011,08,16,07,37,9.90
2011,08,16,07,38,10.00
2011,08,16,07,39,10.00
2011,08,16,07,40,10.10
2011,08,16,07,41,10.20
2011,08,16,07,42,10.30
2011,08,16,07,43,10.40
2011,08,16,07,44,10.50
2011,08,16,07,45,10.60
2011,08,16,07,46,10.70
2011,08,16,07,47,10.80
2011,08,16,07,48,10.90
2011,08,16,07,49,11.00
2011,08,16,07,50,11.10
2011,08,16,07,51,11.10
2011,08,16,07,52,11.20
2011,08,16,07,53,11.30
2011,08,16,07,54,11.40
2011,08,16,07,55,11.40
2011,08,16,07,56,11.50
2011,08,16,07,57,11.50
2011,08,16,07,58,11.60
2011,08,16,07,59,11.70
2011,08,16,08,00,11.70
2011,08,16,08,01,11.80
2011,08,16,08,02,11.90
2011,08,16,08,03,11.90
2011,08,16,08,04,12.00
2011,08,16,08,05,12.10
2011,08,16,08,06,12.20
2011,08,16,08,07,12.20
2011,08,16,08,08,12.30
2011,08,16,08,09,12.30
2011,08,16,08,10,12.40
2011,08,16,08,11,12.50
2011,08,16,08,12,12.50
2011,08,16,08,13,12.60
2011,08,16,08,14,12.70
2011,08,16,08,15,12.70
2011,08,16,08,16,12.80
2011,08,16,08,17,12.80
2011,08,16,08,18,12.80
2011,08,16,08,19,12.90
2011,08,16,08,20,13.00
2011,08,16,08,21,13.00
2011,08,16,08,22,13.10
2011,08,16,08,23,13.10
2011,08,16,08,24,13.20
2011,08,16,08,25,13.20
2011,08,16,08,26,13.30
2011,08,16,08,27,13.30
2011,08,16,08,28,13.30
2011,08,16,08,29,13.40
2011,08,16,08,30,13.40
2011,08,16,08,31,13.50
2011,08,16,08,32,13.50
2011,08,16,08,33,13.60
2011,08,16,08,34,13.70
2011,08,16,08,35,13.70
2011,08,16,08,36,13.80
2011,08,16,08,37,13.80
2011,08,16,08,38,13.90
2011,08,16,08,39,13.90
2011,08,16,08,40,14.00
2011,08,16,08,41,14.00
2011,08,16,08,42,14.10
2011,08,16,08,43,14.10
2011,08,16,08,44,14.10
2011,08,16,08,45,14.20
2011,08,16,08,46,14.20
2011,08,16,08,47,14.30
2011,08,16,08,48,14.30
2011,08,16,08,49,14.40
2011,08,16,08,50,14.40
2011,08,16,08,51,14.50
2011,08,16,08,52,14.50
2011,08,16,08,53,14.50
2011,08,16,08,54,14.60
2011,08,16,08,55,14.60
2011,08,16,08,56,14.60
2011,08,16,08,57,14.70
2011,08,16,08,58,14.70
2011,08,16,08,59,14.70
2011,08,16,09,00,14.80
2011,08,16,09,01,14.80
2011,08,16,09,02,14.80
2011,08,16,09,03,14.80
2011,08,16,09,04,14.90
2011,08,16,09,05,14.90
2011,08,16,09,06,15.00
2011,08,16,09,07,15.00
2011,08,16,09,08,15.10
2011,08,16,09,09,15.10
2011,08,16,09,10,15.20
2011,08,16,09,11,15.20
2011,08,16,09,12,15.30
2011,08,16,09,13,15.30
2011,08,16,09,14,15.30
2011,08,16,09,15,15.30
2011,08,16,09,16,15.40
2011,08,16,09,17,15.40
2011,08,16,09,18,15.50
2011,08,16,09,19,15.60
2011,08,16,09,20,15.60
2011,08,16,09,21,15.60
2011,08,16,09,22,15.60
2011,08,16,09,23,15.60
2011,08,16,09,24,15.60
2011,08,16,09,25,15.60
2011,08,16,09,26,15.60
2011,08,16,09,27,15.60
2011,08,16,09,28,15.60
2011,08,16,09,29,15.60
2011,08,16,09,30,15.60
2011,08,16,09,31,15.60
2011,08,16,09,32,15.70
2011,08,16,09,33,15.70
2011,08,16,09,34,15.80
2011,08,16,09,35,15.80
2011,08,16,09,36,15.90
2011,08,16,09,37,16.00
2011,08,16,09,38,16.00
2011,08,16,09,39,16.00
2011,08,16,09,40,16.00
2011,08,16,09,41,16.00
2011,08,16,09,42,16.10
2011,08,16,09,43,16.10
2011,08,16,09,44,16.10
2011,08,16,09,45,16.20
2011,08,16,09,46,16.20
2011,08,16,09,47,16.20
2011,08,16,09,48,16.20
2011,08,16,09,49,16.20
2011,08,16,09,50,16.30
2011,08,16,09,51,16.30
2011,08,16,09,52,16.30
2011,08,16,09,53,16.30
2011,08,16,09,54,16.30
2011,08,16,09,55,16.40
2011,08,16,09,56,16.40
2011,08,16,09,57,16.40
2011,08,16,09,58,16.40
2011,08,16,09,59,16.40
2011,08,16,10,00,16.40
2011,08,16,10,01,16.40
2011,08,16,10,02,16.40
2011,08,16,10,03,16.50
2011,08,16,10,04,16.50
2011,08,16,10,05,16.50
2011,08,16,10,06,16.60
2011,08,16,10,07,16.60
2011,08,16,10,08,16.60
2011,08,16,10,09,16.60
2011,08,16,10,10,16.60
2011,08,16,10,11,16.60
2011,08,16,10,12,16.60
2011,08,16,10,13,16.50
2011,08,16,10,14,16.50
2011,08,16,10,15,16.40
2011,08,16,10,16,16.50
2011,08,16,10,17,16.50
2011,08,16,10,18,16.60
2011,08,16,10,19,16.70
2011,08,16,10,20,16.70
2011,08,16,10,21,16.70
2011,08,16,10,22,16.70
2011,08,16,10,23,16.70
2011,08,16,10,24,16.70
2011,08,16,10,25,16.80
2011,08,16,10,26,16.80
2011,08,16,10,27,16.90
2011,08,16,10,28,16.90
2011,08,16,10,29,16.90
2011,08,16,10,30,16.90
2011,08,16,10,31,17.00
2011,08,16,10,32,17.00
2011,08,16,10,33,17.10
2011,08,16,10,34,17.10
2011,08,16,10,35,17.20
2011,08,16,10,36,17.30
2011,08,16,10,37,17.30
2011,08,16,10,38,17.40
2011,08,16,10,39,17.40
2011,08,16,10,40,17.50
2011,08,16,10,41,17.50
2011,08,16,10,42,17.60
2011,08,16,10,43,17.60
2011,08,16,10,44,17.50
2011,08,16,10,45,17.50
2011,08,16,10,46,17.40
2011,08,16,10,47,17.40
2011,08,16,10,48,17.40
2011,08,16,10,49,17.50
2011,08,16,10,50,17.50
2011,08,16,10,51,17.50
2011,08,16,10,52,17.50
2011,08,16,10,53,17.50
2011,08,16,10,54,17.60
2011,08,16,10,55,17.60
2011,08,16,10,56,17.70
2011,08,16,10,57,17.80
2011,08,16,10,58,17.80
2011,08,16,10,59,17.90
2011,08,16,11,00,17.90
2011,08,16,11,01,17.90
2011,08,16,11,02,17.90
2011,08,16,11,03,17.90
2011,08,16,11,04,17.90
2011,08,16,11,05,17.90
2011,08,16,11,06,17.90
2011,08,16,11,07,17.90
2011,08,16,11,08,17.90
2011,08,16,11,09,17.90
2011,08,16,11,10,18.00
2011,08,16,11,11,18.00
2011,08,16,11,12,18.00
2011,08,16,11,13,18.00
2011,08,16,11,14,17.90
2011,08,16,11,15,17.90
2011,08,16,11,16,17.90
2011,08,16,11,17,18.00
2011,08,16,11,18,18.00
2011,08,16,11,19,18.10
2011,08,16,11,20,18.10
2011,08,16,11,21,18.20
2011,08,16,11,22,18.30
2011,08,16,11,23,18.40
2011,08,16,11,24,18.50
2011,08,16,11,25,18.60
2011,08,16,11,26,18.70
2011,08,16,11,27,18.80
2011,08,16,11,28,18.80
2011,08,16,11,29,18.90
2011,08,16,11,30,18.90
2011,08,16,11,31,18.90
2011,08,16,11,32,18.90
2011,08,16,11,33,18.90
2011,08,16,11,34,19.00
2011,08,16,11,35,19.00
2011,08,16,11,36,19.10
2011,08,16,11,37,19.20
2011,08,16,11,38,19.30
2011,08,16,11,39,19.30
2011,08,16,11,40,19.20
2011,08,16,11,41,19.00
2011,08,16,11,42,18.90
2011,08,16,11,43,18.80
2011,08,16,11,44,18.70
2011,08,16,11,45,18.70
2011,08,16,11,46,18.60
2011,08,16,11,47,18.60
2011,08,16,11,48,18.60
2011,08,16,11,49,18.60
2011,08,16,11,50,18.60
2011,08,16,11,51,18.60
2011,08,16,11,52,18.70
2011,08,16,11,53,18.80
2011,08,16,11,54,18.90
2011,08,16,11,55,19.00
2011,08,16,11,56,19.10
2011,08,16,11,57,19.20
2011,08,16,11,58,19.30
2011,08,16,11,59,19.30
2011,08,16,12,00,19.40
2011,08,16,12,01,19.40
2011,08,16,12,02,19.50
2011,08,16,12,03,19.50
2011,08,16,12,04,19.60
2011,08,16,12,05,19.60
2011,08,16,12,06,19.60
2011,08,16,12,07,19.60
2011,08,16,12,08,19.70
2011,08,16,12,09,19.70
2011,08,16,12,10,19.80
2011,08,16,12,11,19.90
2011,08,16,12,12,19.90
2011,08,16,12,13,20.00
2011,08,16,12,14,20.00
2011,08,16,12,15,20.00
2011,08,16,12,16,20.00
2011,08,16,12,17,20.00
2011,08,16,12,18,20.10
2011,08,16,12,19,20.10
2011,08,16,12,20,20.10
2011,08,16,12,21,20.10
2011,08,16,12,22,20.10
2011,08,16,12,23,20.10
2011,08,16,12,24,20.20
2011,08,16,12,25,20.20
2011,08,16,12,26,20.20
2011,08,16,12,27,20.20
2011,08,16,12,28,20.10
2011,08,16,12,29,20.00
2011,08,16,12,30,19.90
2011,08,16,12,31,19.80
2011,08,16,12,32,19.80
2011,08,16,12,33,19.90
2011,08,16,12,34,19.90
2011,08,16,12,35,19.90
2011,08,16,12,36,19.90
2011,08,16,12,37,19.90
2011,08,16,12,38,19.90
2011,08,16,12,39,19.80
2011,08,16,12,40,19.80
2011,08,16,12,41,19.70
2011,08,16,12,42,19.70
2011,08,16,12,43,19.60
2011,08,16,12,44,19.60
2011,08,16,12,45,19.50
2011,08,16,12,46,19.50
2011,08,16,12,47,19.50
2011,08,16,12,48,19.50
2011,08,16,12,49,19.60
2011,08,16,12,50,19.60
2011,08,16,12,51,19.60
2011,08,16,12,52,19.60
2011,08,16,12,53,19.70
2011,08,16,12,54,19.70
2011,08,16,12,55,19.70
2011,08,16,12,56,19.80
2011,08,16,12,57,19.80
2011,08,16,12,58,19.80
2011,08,16,12,59,19.80
2011,08,16,13,00,19.80
2011,08,16,13,01,19.80
2011,08,16,13,02,19.80
2011,08,16,13,03,19.80
2011,08,16,13,04,19.80
2011,08,16,13,05,19.90
2011,08,16,13,06,20.00
2011,08,16,13,07,20.10
2011,08,16,13,08,20.10
2011,08,16,13,09,20.20
2011,08,16,13,10,20.20
2011,08,16,13,11,20.20
2011,08,16,13,12,20.30
2011,08,16,13,13,20.30
2011,08,16,13,14,20.40
2011,08,16,13,15,20.50
2011,08,16,13,16,20.60
2011,08,16,13,17,20.70
2011,08,16,13,18,20.70
2011,08,16,13,19,20.80
2011,08,16,13,20,20.80
2011,08,16,13,21,20.90
2011,08,16,13,22,20.90
2011,08,16,13,23,20.90
2011,08,16,13,24,21.00
2011,08,16,13,25,21.00
2011,08,16,13,26,21.00
2011,08,16,13,27,21.00
2011,08,16,13,28,21.00
2011,08,16,13,29,21.00
2011,08,16,13,30,20.90
2011,08,16,13,31,20.90
2011,08,16,13,32,20.90
2011,08,16,13,33,20.90
2011,08,16,13,34,20.80
2011,08,16,13,35,20.80
2011,08,16,13,36,20.80
2011,08,16,13,37,20.90
2011,08,16,13,38,20.90
2011,08,16,13,39,21.00
2011,08,16,13,40,21.10
2011,08,16,13,41,21.10
2011,08,16,13,42,21.10
2011,08,16,13,43,21.10
2011,08,16,13,44,21.10
2011,08,16,13,45,21.10
2011,08,16,13,46,21.10
2011,08,16,13,47,21.10
2011,08,16,13,48,21.10
2011,08,16,13,49,21.10
2011,08,16,13,50,21.10
2011,08,16,13,51,21.00
2011,08,16,13,52,21.00
2011,08,16,13,53,20.90
2011,08,16,13,54,20.90
2011,08,16,13,55,20.90
2011,08,16,13,56,20.90
2011,08,16,13,57,20.90
2011,08,16,13,58,20.90
2011,08,16,13,59,20.90
2011,08,16,14,00,20.90
2011,08,16,14,01,21.00
2011,08,16,14,02,21.00
2011,08,16,14,03,21.10
2011,08,16,14,04,21.10
2011,08,16,14,05,21.20
2011,08,16,14,06,21.30
2011,08,16,14,07,21.30
2011,08,16,14,08,21.40
2011,08,16,14,09,21.40
2011,08,16,14,10,21.40
2011,08,16,14,11,21.40
2011,08,16,14,12,21.50
2011,08,16,14,13,21.50
2011,08,16,14,14,21.50
2011,08,16,14,15,21.60
2011,08,16,14,16,21.60
2011,08,16,14,17,21.60
2011,08,16,14,18,21.70
2011,08,16,14,19,21.70
2011,08,16,14,20,21.70
2011,08,16,14,21,21.70
2011,08,16,14,22,21.60
2011,08,16,14,23,21.60
2011,08,16,14,24,21.60
2011,08,16,14,25,21.70
2011,08,16,14,26,21.70
2011,08,16,14,27,21.70
2011,08,16,14,28,21.60
2011,08,16,14,29,21.60
2011,08,16,14,30,21.60
2011,08,16,14,31,21.60
2011,08,16,14,32,21.60
2011,08,16,14,33,21.60
2011,08,16,14,34,21.60
2011,08,16,14,35,21.60
2011,08,16,14,36,21.50
2011,08,16,14,37,21.40
2011,08,16,14,38,21.30
2011,08,16,14,39,21.30
2011,08,16,14,40,21.20
2011,08,16,14,41,21.20
2011,08,16,14,42,21.10
2011,08,16,14,43,21.10
2011,08,16,14,44,21.00
2011,08,16,14,45,21.00
2011,08,16,14,46,21.00
2011,08,16,14,47,21.00
2011,08,16,14,48,20.90
2011,08,16,14,49,20.90
2011,08,16,14,50,20.90
2011,08,16,14,51,20.90
2011,08,16,14,52,20.90
2011,08,16,14,53,20.90
2011,08,16,14,54,20.80
2011,08,16,14,55,20.80
2011,08,16,14,56,20.80
2011,08,16,14,57,20.80
2011,08,16,14,58,20.80
2011,08,16,14,59,20.80
2011,08,16,15,00,20.80
2011,08,16,15,01,20.80
2011,08,16,15,02,20.80
2011,08,16,15,03,20.90
2011,08,16,15,04,20.90
2011,08,16,15,05,21.00
2011,08,16,15,06,21.10
2011,08,16,15,07,21.30
2011,08,16,15,08,21.40
2011,08,16,15,09,21.50
2011,08,16,15,10,21.60
2011,08,16,15,11,21.70
2011,08,16,15,12,21.80
2011,08,16,15,13,21.80
2011,08,16,15,14,21.90
2011,08,16,15,15,21.90
2011,08,16,15,16,21.90
2011,08,16,15,17,22.00
2011,08,16,15,18,22.00
2011,08,16,15,19,21.90
2011,08,16,15,20,21.90
2011,08,16,15,21,21.90
2011,08,16,15,22,21.80
2011,08,16,15,23,21.80
2011,08,16,15,24,21.80
2011,08,16,15,25,21.80
2011,08,16,15,26,21.80
2011,08,16,15,27,21.80
2011,08,16,15,28,21.70
2011,08,16,15,29,21.70
2011,08,16,15,30,21.70
2011,08,16,15,31,21.80
2011,08,16,15,32,21.80
2011,08,16,15,33,21.90
2011,08,16,15,34,21.90
2011,08,16,15,35,21.90
2011,08,16,15,36,21.90
2011,08,16,15,37,21.90
2011,08,16,15,38,21.90
2011,08,16,15,39,21.90
2011,08,16,15,40,22.00
2011,08,16,15,41,22.00
2011,08,16,15,42,22.00
2011,08,16,15,43,22.10
2011,08,16,15,44,22.10
2011,08,16,15,45,22.20
2011,08,16,15,46,22.20
2011,08,16,15,47,22.20
2011,08,16,15,48,22.30
2011,08,16,15,49,22.30
2011,08,16,15,50,22.30
2011,08,16,15,51,22.40
2011,08,16,15,52,22.40
2011,08,16,15,53,22.50
2011,08,16,15,54,22.60
2011,08,16,15,55,22.60
2011,08,16,15,56,22.60
2011,08,16,15,57,22.60
2011,08,16,15,58,22.50
2011,08,16,15,59,22.40
2011,08,16,16,00,22.40
2011,08,16,16,01,22.40
2011,08,16,16,02,22.30
2011,08,16,16,03,22.40
2011,08,16,16,04,22.40
2011,08,16,16,05,22.40
2011,08,16,16,06,22.50
2011,08,16,16,07,22.50
2011,08,16,16,08,22.60
2011,08,16,16,09,22.60
2011,08,16,16,10,22.70
2011,08,16,16,11,22.70
2011,08,16,16,12,22.70
2011,08,16,16,13,22.70
2011,08,16,16,14,22.70
2011,08,16,16,15,22.60
2011,08,16,16,16,22.60
2011,08,16,16,17,22.60
2011,08,16,16,18,22.60
2011,08,16,16,19,22.60
2011,08,16,16,20,22.70
2011,08,16,16,21,22.70
2011,08,16,16,22,22.70
2011,08,16,16,23,22.70
2011,08,16,16,24,22.60
2011,08,16,16,25,22.60
2011,08,16,16,26,22.50
2011,08,16,16,27,22.40
2011,08,16,16,28,22.40
2011,08,16,16,29,22.40
2011,08,16,16,30,22.50
2011,08,16,16,31,22.50
2011,08,16,16,32,22.50
2011,08,16,16,33,22.50
2011,08,16,16,34,22.50
2011,08,16,16,35,22.50
2011,08,16,16,36,22.50
2011,08,16,16,37,22.40
2011,08,16,16,38,22.40
2011,08,16,16,39,22.40
2011,08,16,16,40,22.40
2011,08,16,16,41,22.40
2011,08,16,16,42,22.40
2011,08,16,16,43,22.40
2011,08,16,16,44,22.40
2011,08,16,16,45,22.40
2011,08,16,16,46,22.50
2011,08,16,16,47,22.50
2011,08,16,16,48,22.50
2011,08,16,16,49,22.40
2011,08,16,16,50,22.50
2011,08,16,16,51,22.50
2011,08,16,16,52,22.50
2011,08,16,16,53,22.60
2011,08,16,16,54,22.50
2011,08,16,16,55,22.50
2011,08,16,16,56,22.50
2011,08,16,16,57,22.40
2011,08,16,16,58,22.40
2011,08,16,16,59,22.40
2011,08,16,17,00,22.40
2011,08,16,17,01,22.40
2011,08,16,17,02,22.40
2011,08,16,17,03,22.40
2011,08,16,17,04,22.40
2011,08,16,17,05,22.40
2011,08,16,17,06,22.40
2011,08,16,17,07,22.40
2011,08,16,17,08,22.40
2011,08,16,17,09,22.30
2011,08,16,17,10,22.30
2011,08,16,17,11,22.30
2011,08,16,17,12,22.30
2011,08,16,17,13,22.30
2011,08,16,17,14,22.30
2011,08,16,17,15,22.30
2011,08,16,17,16,22.30
2011,08,16,17,17,22.30
2011,08,16,17,18,22.30
2011,08,16,17,19,22.30
2011,08,16,17,20,22.30
2011,08,16,17,21,22.30
2011,08,16,17,22,22.30
2011,08,16,17,23,22.30
2011,08,16,17,24,22.20
2011,08,16,17,25,22.20
2011,08,16,17,26,22.20
2011,08,16,17,27,22.20
2011,08,16,17,28,22.20
2011,08,16,17,29,22.20
2011,08,16,17,30,22.20
2011,08,16,17,31,22.20
2011,08,16,17,32,22.20